Time,TemperatureF,DewpointF,PressureIn,WindDirection,WindDirectionDegrees,WindSpeedMPH,WindSpeedGustMPH,Humidity,HourlyPrecipIn,Conditions,Clouds,dailyrainin,SoftwareType,DateUTC
2013-09-27 00:00:00,63.3,57.4,29.92,ENE,74,0.0,0.0,81,0.00,,,0.31,Wunderground v.1.15,2013-09-27 04:00:00,
2013-09-27 00:05:00,63.4,57.5,29.92,SE,128,0.0,2.0,81,0.00,,,0.00,Wunderground v.1.15,2013-09-27 04:05:00,
2013-09-27 00:15:00,63.5,57.6,29.93,ESE,118,0.0,0.0,81,0.00,,,0.00,Wunderground v.1.15,2013-09-27 04:15:00,
2013-09-27 00:20:00,63.5,57.6,29.93,ESE,118,0.0,1.0,81,0.00,,,0.00,Wunderground v.1.15,2013-09-27 04:20:00,
2013-09-27 00:30:00,63.6,57.7,29.93,WSW,248,0.0,0.0,81,0.00,,,0.00,Wunderground v.1.15,2013-09-27 04:30:00,
2013-09-27 00:35:00,63.6,57.7,29.92,ESE,107,0.0,0.0,81,0.00,,,0.00,Wunderground v.1.15,2013-09-27 04:35:00,
2013-09-27 00:40:00,63.6,57.7,29.93,ESE,107,1.0,1.0,81,0.00,,,0.00,Wunderground v.1.15,2013-09-27 04:40:00,
2013-09-27 00:50:00,63.7,57.8,29.93,East,86,1.0,1.0,81,0.00,,,0.00,Wunderground v.1.15,2013-09-27 04:50:00,
2013-09-27 01:00:00,63.8,57.9,29.93,East,86,0.0,0.0,81,0.00,,,0.00,Wunderground v.1.15,2013-09-27 05:00:00,
2013-09-27 01:05:00,63.8,57.9,29.93,ENE,68,0.0,0.0,81,0.00,,,0.00,Wunderground v.1.15,2013-09-27 05:05:00,
2013-09-27 01:15:00,63.9,58.3,29.93,ENE,76,1.0,2.0,82,0.00,,,0.00,Wunderground v.1.15,2013-09-27 05:15:00,
2013-09-27 01:25:00,64.1,58.5,29.92,ENE,59,1.0,1.0,82,0.00,,,0.00,Wunderground v.1.15,2013-09-27 05:25:00,
2013-09-27 01:30:00,64.1,58.5,29.92,SSE,156,1.0,1.0,82,0.00,,,0.00,Wunderground v.1.15,2013-09-27 05:30:00,
2013-09-27 01:35:00,64.1,58.5,29.93,South,180,1.0,1.0,82,0.00,,,0.00,Wunderground v.1.15,2013-09-27 05:35:00,
2013-09-27 01:45:00,64.0,58.4,29.92,NE,40,0.0,1.0,82,0.00,,,0.00,Wunderground v.1.15,2013-09-27 05:45:00,
2013-09-27 01:50:00,64.0,58.7,29.92,East,83,0.0,0.0,83,0.00,,,0.00,Wunderground v.1.15,2013-09-27 05:50:00,
2013-09-27 02:00:00,63.9,58.6,29.92,East,84,1.0,1.0,83,0.00,,,0.00,Wunderground v.1.15,2013-09-27 06:00:00,
2013-09-27 02:05:00,63.8,58.9,29.92,East,90,0.0,1.0,84,0.00,,,0.00,Wunderground v.1.15,2013-09-27 06:05:00,
2013-09-27 02:15:00,63.5,58.6,29.93,East,90,0.0,0.0,84,0.00,,,0.00,Wunderground v.1.15,2013-09-27 06:15:00,
2013-09-27 02:20:00,63.4,58.5,29.92,East,90,0.0,0.0,84,0.00,,,0.00,Wunderground v.1.15,2013-09-27 06:20:00,
2013-09-27 02:30:00,63.2,58.6,29.93,East,92,0.0,0.0,85,0.00,,,0.00,Wunderground v.1.15,2013-09-27 06:30:00,
2013-09-27 02:35:00,63.1,58.5,29.92,East,92,0.0,1.0,85,0.00,,,0.00,Wunderground v.1.15,2013-09-27 06:35:00,
2013-09-27 02:45:00,62.9,58.6,29.92,East,83,0.0,1.0,86,0.00,,,0.00,Wunderground v.1.15,2013-09-27 06:45:00,
2013-09-27 02:50:00,62.7,58.5,29.92,East,84,0.0,0.0,86,0.00,,,0.00,Wunderground v.1.15,2013-09-27 06:50:00,
2013-09-27 03:00:00,62.5,58.3,29.92,SE,139,0.0,0.0,86,0.00,,,0.00,Wunderground v.1.15,2013-09-27 07:00:00,
2013-09-27 03:05:00,62.4,58.2,29.92,SE,140,0.0,0.0,86,0.00,,,0.00,Wunderground v.1.15,2013-09-27 07:05:00,
2013-09-27 03:15:00,62.1,58.2,29.92,SSW,204,0.0,0.0,87,0.00,,,0.00,Wunderground v.1.15,2013-09-27 07:15:00,
2013-09-27 03:25:00,61.8,58.2,29.92,SSW,204,0.0,0.0,88,0.00,,,0.00,Wunderground v.1.15,2013-09-27 07:25:00,
2013-09-27 03:30:00,61.7,58.1,29.92,SSW,204,0.0,0.0,88,0.00,,,0.00,Wunderground v.1.15,2013-09-27 07:30:00,
2013-09-27 03:40:00,61.4,57.8,29.92,SSW,204,0.0,0.0,88,0.00,,,0.00,Wunderground v.1.15,2013-09-27 07:40:00,
2013-09-27 03:50:00,61.1,57.8,29.92,SSW,204,0.0,1.0,89,0.00,,,0.00,Wunderground v.1.15,2013-09-27 07:50:00,
2013-09-27 04:00:00,60.8,57.8,29.92,SSW,210,0.0,0.0,90,0.00,,,0.00,Wunderground v.1.15,2013-09-27 08:00:00,
2013-09-27 04:05:00,60.7,57.7,29.92,WSW,257,0.0,0.0,90,0.00,,,0.00,Wunderground v.1.15,2013-09-27 08:05:00,
2013-09-27 04:15:00,60.6,57.7,29.92,WSW,257,0.0,1.0,90,0.00,,,0.00,Wunderground v.1.15,2013-09-27 08:15:00,
2013-09-27 04:25:00,60.4,57.5,29.93,SW,217,0.0,0.0,90,0.00,,,0.00,Wunderground v.1.15,2013-09-27 08:25:00,
2013-09-27 04:35:00,60.2,57.6,29.93,SW,217,0.0,0.0,91,0.00,,,0.00,Wunderground v.1.15,2013-09-27 08:35:00,
2013-09-27 04:45:00,60.0,57.4,29.93,SW,217,0.0,0.0,91,0.00,,,0.00,Wunderground v.1.15,2013-09-27 08:45:00,
2013-09-27 04:55:00,59.8,57.5,29.94,SW,217,0.0,2.0,92,0.00,,,0.00,Wunderground v.1.15,2013-09-27 08:55:00,
2013-09-27 05:00:00,59.8,57.5,29.94,SW,217,0.0,0.0,92,0.00,,,0.00,Wunderground v.1.15,2013-09-27 09:00:00,
2013-09-27 05:10:00,59.6,57.3,29.94,SW,217,0.0,1.0,92,0.00,,,0.00,Wunderground v.1.15,2013-09-27 09:10:00,
2013-09-27 05:15:00,59.6,57.3,29.94,SW,217,0.0,1.0,92,0.00,,,0.00,Wunderground v.1.15,2013-09-27 09:15:00,
2013-09-27 05:25:00,59.4,57.1,29.95,SW,236,0.0,0.0,92,0.00,,,0.00,Wunderground v.1.15,2013-09-27 09:25:00,
2013-09-27 05:35:00,59.3,57.0,29.95,SW,236,0.0,0.0,92,0.00,,,0.00,Wunderground v.1.15,2013-09-27 09:35:00,
2013-09-27 05:45:00,59.2,57.2,29.95,SSE,161,0.0,0.0,93,0.00,,,0.00,Wunderground v.1.15,2013-09-27 09:45:00,
2013-09-27 05:55:00,59.1,57.1,29.95,SSE,161,0.0,0.0,93,0.00,,,0.00,Wunderground v.1.15,2013-09-27 09:55:00,
2013-09-27 06:05:00,59.1,57.1,29.95,SSE,156,0.0,0.0,93,0.00,,,0.00,Wunderground v.1.15,2013-09-27 10:05:00,
2013-09-27 06:15:00,59.0,57.0,29.95,SSE,161,0.0,1.0,93,0.00,,,0.00,Wunderground v.1.15,2013-09-27 10:15:00,
2013-09-27 06:20:00,59.0,57.0,29.95,SSE,161,0.0,0.0,93,0.00,,,0.00,Wunderground v.1.15,2013-09-27 10:20:00,
2013-09-27 06:30:00,59.0,57.0,29.96,East,99,0.0,0.0,93,0.00,,,0.00,Wunderground v.1.15,2013-09-27 10:30:00,
2013-09-27 06:40:00,59.0,57.0,29.96,East,99,0.0,0.0,93,0.00,,,0.00,Wunderground v.1.15,2013-09-27 10:40:00,
2013-09-27 06:45:00,59.0,57.0,29.96,East,99,0.0,0.0,93,0.00,,,0.00,Wunderground v.1.15,2013-09-27 10:45:00,
2013-09-27 06:55:00,59.0,57.0,29.97,SW,230,0.0,0.0,93,0.00,,,0.00,Wunderground v.1.15,2013-09-27 10:55:00,
2013-09-27 07:00:00,59.0,57.0,29.97,SW,230,0.0,1.0,93,0.00,,,0.00,Wunderground v.1.15,2013-09-27 11:00:00,
2013-09-27 07:10:00,59.0,57.0,29.97,West,276,1.0,2.0,93,0.00,,,0.00,Wunderground v.1.15,2013-09-27 11:10:00,
2013-09-27 07:15:00,59.0,57.0,29.97,West,276,0.0,2.0,93,0.00,,,0.00,Wunderground v.1.15,2013-09-27 11:15:00,
2013-09-27 07:25:00,59.0,57.0,29.97,West,276,0.0,2.0,93,0.00,,,0.00,Wunderground v.1.15,2013-09-27 11:25:00,
2013-09-27 07:30:00,59.0,57.0,29.98,West,262,0.0,0.0,93,0.00,,,0.00,Wunderground v.1.15,2013-09-27 11:30:00,
2013-09-27 07:40:00,59.2,57.2,29.98,West,262,0.0,1.0,93,0.00,,,0.00,Wunderground v.1.15,2013-09-27 11:40:00,
2013-09-27 07:45:00,59.3,57.3,29.98,West,262,0.0,2.0,93,0.00,,,0.00,Wunderground v.1.15,2013-09-27 11:45:00,
2013-09-27 07:55:00,60.0,58.0,29.99,WSW,248,1.0,1.0,93,0.00,,,0.00,Wunderground v.1.15,2013-09-27 11:55:00,
2013-09-27 08:00:00,60.5,58.2,29.99,West,275,1.0,1.0,92,0.00,,,0.00,Wunderground v.1.15,2013-09-27 12:00:00,
2013-09-27 08:10:00,61.3,58.7,29.99,WNW,299,1.0,1.0,91,0.00,,,0.00,Wunderground v.1.15,2013-09-27 12:10:00,
2013-09-27 08:15:00,61.6,58.6,29.99,East,81,1.0,1.0,90,0.00,,,0.00,Wunderground v.1.15,2013-09-27 12:15:00,
2013-09-27 08:25:00,61.9,58.6,30.00,WNW,283,1.0,1.0,89,0.00,,,0.00,Wunderground v.1.15,2013-09-27 12:25:00,
2013-09-27 08:30:00,62.2,58.9,30.00,WNW,284,1.0,1.0,89,0.00,,,0.00,Wunderground v.1.15,2013-09-27 12:30:00,
2013-09-27 08:40:00,62.6,59.0,30.00,SE,137,1.0,1.0,88,0.00,,,0.00,Wunderground v.1.15,2013-09-27 12:40:00,
2013-09-27 08:50:00,63.2,59.6,30.00,NNW,342,0.0,2.0,88,0.00,,,0.00,Wunderground v.1.15,2013-09-27 12:50:00,
2013-09-27 09:00:00,63.8,59.9,30.00,NNW,334,1.0,1.0,87,0.00,,,0.00,Wunderground v.1.15,2013-09-27 13:00:00,
2013-09-27 09:05:00,64.0,59.7,30.00,East,86,1.0,6.0,86,0.00,,,0.00,Wunderground v.1.15,2013-09-27 13:05:00,
2013-09-27 09:15:00,64.8,60.2,30.00,WSW,257,1.0,1.0,85,0.00,,,0.00,Wunderground v.1.15,2013-09-27 13:15:00,
2013-09-27 09:20:00,65.4,60.4,30.01,SE,139,1.0,1.0,84,0.00,,,0.00,Wunderground v.1.15,2013-09-27 13:20:00,
2013-09-27 09:30:00,66.0,60.3,30.01,North,350,1.0,1.0,82,0.00,,,0.00,Wunderground v.1.15,2013-09-27 13:30:00,
2013-09-27 09:35:00,66.2,60.2,30.01,WSW,237,1.0,3.0,81,0.00,,,0.00,Wunderground v.1.15,2013-09-27 13:35:00,
2013-09-27 09:45:00,66.7,60.3,30.01,ESE,113,2.0,4.0,80,0.00,,,0.00,Wunderground v.1.15,2013-09-27 13:45:00,
2013-09-27 09:55:00,67.4,60.7,30.01,NW,323,1.0,2.0,79,0.00,,,0.00,Wunderground v.1.15,2013-09-27 13:55:00,
2013-09-27 10:00:00,67.7,61.0,30.01,NW,317,1.0,3.0,79,0.00,,,0.00,Wunderground v.1.15,2013-09-27 14:00:00,
2013-09-27 10:10:00,68.3,60.8,30.02,West,265,2.0,2.0,77,0.00,,,0.00,Wunderground v.1.15,2013-09-27 14:10:00,
2013-09-27 10:15:00,68.7,61.2,30.02,ENE,68,1.0,4.0,77,0.00,,,0.00,Wunderground v.1.15,2013-09-27 14:15:00,
2013-09-27 10:25:00,69.6,61.7,30.02,ESE,103,1.0,1.0,76,0.00,,,0.00,Wunderground v.1.15,2013-09-27 14:25:00,
2013-09-27 10:35:00,70.4,61.3,30.02,ENE,61,2.0,2.0,73,0.00,,,0.00,Wunderground v.1.15,2013-09-27 14:35:00,
2013-09-27 10:40:00,71.0,61.1,30.03,West,262,2.0,2.0,71,0.00,,,0.00,Wunderground v.1.15,2013-09-27 14:40:00,
2013-09-27 10:50:00,72.2,61.9,30.02,ENE,67,1.0,1.0,70,0.00,,,0.00,Wunderground v.1.15,2013-09-27 14:50:00,
2013-09-27 11:00:00,73.2,62.4,30.02,SSE,155,1.0,1.0,69,0.00,,,0.00,Wunderground v.1.15,2013-09-27 15:00:00,
2013-09-27 11:10:00,73.8,61.7,30.03,ENE,74,2.0,2.0,66,0.00,,,0.00,Wunderground v.1.15,2013-09-27 15:10:00,
2013-09-27 11:20:00,74.3,61.8,30.03,NE,43,2.0,2.0,65,0.00,,,0.00,Wunderground v.1.15,2013-09-27 15:20:00,
2013-09-27 11:25:00,74.6,61.6,30.03,ENE,61,2.0,2.0,64,0.00,,,0.00,Wunderground v.1.15,2013-09-27 15:25:00,
2013-09-27 11:35:00,74.9,61.5,30.03,ENE,64,1.0,2.0,63,0.00,,,0.00,Wunderground v.1.15,2013-09-27 15:35:00,
2013-09-27 11:40:00,74.8,61.8,30.03,North,351,1.0,1.0,64,0.00,,,0.00,Wunderground v.1.15,2013-09-27 15:40:00,
2013-09-27 11:50:00,75.2,61.7,30.02,WSW,246,2.0,6.0,63,0.00,,,0.00,Wunderground v.1.15,2013-09-27 15:50:00,
2013-09-27 11:55:00,75.5,62.5,30.02,NE,44,2.0,6.0,64,0.00,,,0.00,Wunderground v.1.15,2013-09-27 15:55:00,
2013-09-27 12:00:00,76.0,62.0,30.02,ESE,117,1.0,1.0,62,0.00,,,0.00,Wunderground v.1.15,2013-09-27 16:00:00,
2013-09-27 12:10:00,75.6,62.1,30.02,NE,46,2.0,2.0,63,0.00,,,0.00,Wunderground v.1.15,2013-09-27 16:10:00,
2013-09-27 12:20:00,75.6,62.6,30.02,ENE,71,1.0,3.0,64,0.00,,,0.00,Wunderground v.1.15,2013-09-27 16:20:00,
2013-09-27 12:30:00,76.5,62.0,30.02,SW,234,2.0,2.0,61,0.00,,,0.00,Wunderground v.1.15,2013-09-27 16:30:00,
2013-09-27 12:40:00,77.2,61.8,30.01,West,262,2.0,4.0,59,0.00,,,0.00,Wunderground v.1.15,2013-09-27 16:40:00,
2013-09-27 12:45:00,77.4,61.9,30.02,East,96,2.0,4.0,59,0.00,,,0.00,Wunderground v.1.15,2013-09-27 16:45:00,
2013-09-27 12:55:00,77.9,62.4,30.01,SW,224,2.0,4.0,59,0.00,,,0.00,Wunderground v.1.15,2013-09-27 16:55:00,
2013-09-27 13:05:00,77.8,62.3,30.01,North,5,1.0,3.0,59,0.00,,,0.00,Wunderground v.1.15,2013-09-27 17:05:00,
2013-09-27 13:15:00,78.0,63.5,30.01,SW,223,1.0,3.0,61,0.00,,,0.00,Wunderground v.1.15,2013-09-27 17:15:00,
2013-09-27 13:25:00,79.1,63.5,30.01,ENE,63,1.0,1.0,59,0.00,,,0.00,Wunderground v.1.15,2013-09-27 17:25:00,
2013-09-27 13:30:00,78.9,62.4,30.00,East,81,1.0,1.0,57,0.00,,,0.00,Wunderground v.1.15,2013-09-27 17:30:00,
2013-09-27 13:40:00,79.1,62.6,30.00,WSW,256,2.0,4.0,57,0.00,,,0.00,Wunderground v.1.15,2013-09-27 17:40:00,
2013-09-27 13:45:00,78.5,62.0,30.00,North,10,2.0,4.0,57,0.00,,,0.00,Wunderground v.1.15,2013-09-27 17:45:00,
2013-09-27 13:55:00,77.6,63.1,30.00,WNW,287,1.0,1.0,61,0.00,,,0.00,Wunderground v.1.15,2013-09-27 17:55:00,
2013-09-27 14:05:00,77.0,62.5,30.00,West,270,1.0,1.0,61,0.00,,,0.00,Wunderground v.1.15,2013-09-27 18:05:00,
2013-09-27 14:10:00,77.0,63.4,30.00,NW,312,1.0,2.0,63,0.00,,,0.00,Wunderground v.1.15,2013-09-27 18:10:00,
2013-09-27 14:20:00,77.2,62.2,29.99,NNW,339,1.0,2.0,60,0.00,,,0.00,Wunderground v.1.15,2013-09-27 18:20:00,
2013-09-27 14:25:00,77.0,62.5,30.00,West,281,1.0,2.0,61,0.00,,,0.00,Wunderground v.1.15,2013-09-27 18:25:00,
2013-09-27 14:35:00,77.5,62.5,30.00,SE,128,1.0,1.0,60,0.00,,,0.00,Wunderground v.1.15,2013-09-27 18:35:00,
2013-09-27 14:45:00,77.8,62.8,29.99,East,84,1.0,2.0,60,0.00,,,0.00,Wunderground v.1.15,2013-09-27 18:45:00,
2013-09-27 14:55:00,77.6,61.7,29.99,ENE,61,1.0,1.0,58,0.00,,,0.00,Wunderground v.1.15,2013-09-27 18:55:00,
2013-09-27 15:00:00,77.3,62.3,29.99,ENE,61,1.0,1.0,60,0.00,,,0.00,Wunderground v.1.15,2013-09-27 19:00:00,
2013-09-27 15:10:00,78.5,63.5,29.98,SSE,163,1.0,1.0,60,0.00,,,0.00,Wunderground v.1.15,2013-09-27 19:10:00,
2013-09-27 15:15:00,78.8,62.3,29.99,ENE,74,2.0,2.0,57,0.00,,,0.00,Wunderground v.1.15,2013-09-27 19:15:00,
2013-09-27 15:25:00,78.6,62.1,29.99,North,5,1.0,2.0,57,0.00,,,0.00,Wunderground v.1.15,2013-09-27 19:25:00,
2013-09-27 15:30:00,78.7,62.7,29.98,ENE,64,1.0,1.0,58,0.00,,,0.00,Wunderground v.1.15,2013-09-27 19:30:00,
2013-09-27 15:40:00,78.6,61.6,29.98,SSW,196,1.0,3.0,56,0.00,,,0.00,Wunderground v.1.15,2013-09-27 19:40:00,
2013-09-27 15:50:00,78.4,61.9,29.99,ENE,72,1.0,1.0,57,0.00,,,0.00,Wunderground v.1.15,2013-09-27 19:50:00,
2013-09-27 16:00:00,78.7,62.2,29.99,NE,54,1.0,2.0,57,0.00,,,0.00,Wunderground v.1.15,2013-09-27 20:00:00,
2013-09-27 16:10:00,79.4,61.8,29.98,East,90,1.0,3.0,55,0.00,,,0.00,Wunderground v.1.15,2013-09-27 20:10:00,
2013-09-27 16:15:00,78.9,61.4,29.99,WNW,296,1.0,3.0,55,0.00,,,0.00,Wunderground v.1.15,2013-09-27 20:15:00,
2013-09-27 16:25:00,78.8,61.8,29.99,WSW,238,1.0,3.0,56,0.00,,,0.00,Wunderground v.1.15,2013-09-27 20:25:00,
2013-09-27 16:30:00,79.2,61.1,29.99,East,79,1.0,1.0,54,0.00,,,0.00,Wunderground v.1.15,2013-09-27 20:30:00,
2013-09-27 16:40:00,79.4,61.3,29.98,NW,305,1.0,3.0,54,0.00,,,0.00,Wunderground v.1.15,2013-09-27 20:40:00,
2013-09-27 16:45:00,79.6,60.4,29.98,ENE,67,1.0,3.0,52,0.00,,,0.00,Wunderground v.1.15,2013-09-27 20:45:00,
2013-09-27 16:55:00,79.6,60.4,29.99,NE,49,1.0,2.0,52,0.00,,,0.00,Wunderground v.1.15,2013-09-27 20:55:00,
2013-09-27 17:00:00,79.3,59.6,29.99,SW,219,1.0,1.0,51,0.00,,,0.00,Wunderground v.1.15,2013-09-27 21:00:00,
2013-09-27 17:10:00,78.9,59.8,29.99,East,96,1.0,1.0,52,0.00,,,0.00,Wunderground v.1.15,2013-09-27 21:10:00,
2013-09-27 17:15:00,78.4,59.3,29.99,ESE,105,1.0,1.0,52,0.00,,,0.00,Wunderground v.1.15,2013-09-27 21:15:00,
2013-09-27 17:30:00,77.4,59.5,29.99,WSW,255,0.0,0.0,54,0.00,,,0.00,Wunderground v.1.15,2013-09-27 21:30:00,
2013-09-27 17:40:00,76.9,60.0,29.99,NW,304,0.0,0.0,56,0.00,,,0.00,Wunderground v.1.15,2013-09-27 21:40:00,
2013-09-27 17:50:00,76.9,60.0,30.00,WNW,296,0.0,0.0,56,0.00,,,0.00,Wunderground v.1.15,2013-09-27 21:50:00,
2013-09-27 18:00:00,76.2,59.9,30.00,West,279,0.0,0.0,57,0.00,,,0.00,Wunderground v.1.15,2013-09-27 22:00:00,
2013-09-27 18:05:00,75.4,59.1,30.00,West,280,0.0,0.0,57,0.00,,,0.00,Wunderground v.1.15,2013-09-27 22:05:00,
2013-09-27 18:15:00,74.8,58.5,30.01,SW,215,1.0,1.0,57,0.00,,,0.00,Wunderground v.1.15,2013-09-27 22:15:00,
2013-09-27 18:20:00,74.4,58.2,30.01,East,94,1.0,1.0,57,0.00,,,0.00,Wunderground v.1.15,2013-09-27 22:20:00,
2013-09-27 18:30:00,74.1,58.9,30.01,NE,45,0.0,0.0,59,0.00,,,0.00,Wunderground v.1.15,2013-09-27 22:30:00,
2013-09-27 18:40:00,73.5,58.3,30.02,SE,127,0.0,1.0,59,0.00,,,0.00,Wunderground v.1.15,2013-09-27 22:40:00,
2013-09-27 18:50:00,72.9,58.2,30.02,NE,51,0.0,0.0,60,0.00,,,0.00,Wunderground v.1.15,2013-09-27 22:50:00,
2013-09-27 19:00:00,72.4,57.7,30.02,NE,45,0.0,0.0,60,0.00,,,0.00,Wunderground v.1.15,2013-09-27 23:00:00,
2013-09-27 19:10:00,71.9,58.2,30.02,NE,45,0.0,0.0,62,0.00,,,0.00,Wunderground v.1.15,2013-09-27 23:10:00,
2013-09-27 19:15:00,71.6,57.9,30.03,NE,45,0.0,0.0,62,0.00,,,0.00,Wunderground v.1.15,2013-09-27 23:15:00,
2013-09-27 19:25:00,71.1,57.9,30.03,WSW,237,0.0,0.0,63,0.00,,,0.00,Wunderground v.1.15,2013-09-27 23:25:00,
2013-09-27 19:35:00,70.6,57.8,30.03,SE,134,0.0,0.0,64,0.00,,,0.00,Wunderground v.1.15,2013-09-27 23:35:00,
2013-09-27 19:45:00,70.1,57.4,30.03,South,186,0.0,0.0,64,0.00,,,0.00,Wunderground v.1.15,2013-09-27 23:45:00,
2013-09-27 19:55:00,69.7,57.4,30.04,South,170,0.0,0.0,65,0.00,,,0.00,Wunderground v.1.15,2013-09-27 23:55:00,
2013-09-27 20:05:00,69.3,57.5,30.04,South,170,0.0,0.0,66,0.00,,,0.00,Wunderground v.1.15,2013-09-28 00:05:00,
2013-09-27 20:10:00,69.0,57.2,30.04,South,170,0.0,0.0,66,0.00,,,0.00,Wunderground v.1.15,2013-09-28 00:10:00,
2013-09-27 20:20:00,68.6,57.2,30.04,South,170,0.0,0.0,67,0.00,,,0.00,Wunderground v.1.15,2013-09-28 00:20:00,
2013-09-27 20:25:00,68.4,57.4,30.04,South,170,0.0,0.0,68,0.00,,,0.00,Wunderground v.1.15,2013-09-28 00:25:00,
2013-09-27 20:35:00,67.9,56.9,30.04,South,170,0.0,0.0,68,0.00,,,0.00,Wunderground v.1.15,2013-09-28 00:35:00,
2013-09-27 20:40:00,67.6,57.1,30.04,South,170,0.0,0.0,69,0.00,,,0.00,Wunderground v.1.15,2013-09-28 00:40:00,
2013-09-27 20:50:00,67.1,57.0,30.05,South,170,0.0,0.0,70,0.00,,,0.00,Wunderground v.1.15,2013-09-28 00:50:00,
2013-09-27 21:00:00,66.7,56.6,30.05,South,170,0.0,0.0,70,0.00,,,0.00,Wunderground v.1.15,2013-09-28 01:00:00,
2013-09-27 21:05:00,66.5,56.8,30.05,South,170,0.0,0.0,71,0.00,,,0.00,Wunderground v.1.15,2013-09-28 01:05:00,
2013-09-27 21:15:00,66.0,56.7,30.06,South,170,0.0,0.0,72,0.00,,,0.00,Wunderground v.1.15,2013-09-28 01:15:00,
2013-09-27 21:20:00,65.8,56.9,30.06,South,170,0.0,0.0,73,0.00,,,0.00,Wunderground v.1.15,2013-09-28 01:20:00,
2013-09-27 21:30:00,65.4,56.5,30.06,South,170,0.0,0.0,73,0.00,,,0.00,Wunderground v.1.15,2013-09-28 01:30:00,
2013-09-27 21:35:00,65.2,56.7,30.06,South,170,0.0,0.0,74,0.00,,,0.00,Wunderground v.1.15,2013-09-28 01:35:00,
2013-09-27 21:45:00,64.8,56.7,30.06,South,170,0.0,0.0,75,0.00,,,0.00,Wunderground v.1.15,2013-09-28 01:45:00,
2013-09-27 21:50:00,64.6,56.5,30.06,South,170,0.0,0.0,75,0.00,,,0.00,Wunderground v.1.15,2013-09-28 01:50:00,
2013-09-27 22:00:00,64.3,56.6,30.06,South,170,0.0,0.0,76,0.00,,,0.00,Wunderground v.1.15,2013-09-28 02:00:00,
2013-09-27 22:10:00,64.1,56.7,30.07,South,170,0.0,0.0,77,0.00,,,0.00,Wunderground v.1.15,2013-09-28 02:10:00,
2013-09-27 22:20:00,63.8,56.4,30.07,South,170,0.0,0.0,77,0.00,,,0.00,Wunderground v.1.15,2013-09-28 02:20:00,
2013-09-27 22:30:00,63.6,56.3,30.08,South,170,0.0,1.0,77,0.00,,,0.00,Wunderground v.1.15,2013-09-28 02:30:00,
2013-09-27 22:40:00,63.4,56.4,30.08,South,170,0.0,0.0,78,0.00,,,0.00,Wunderground v.1.15,2013-09-28 02:40:00,
2013-09-27 22:45:00,63.2,56.2,30.08,South,170,0.0,0.0,78,0.00,,,0.00,Wunderground v.1.15,2013-09-28 02:45:00,
2013-09-27 22:55:00,63.1,56.1,30.08,South,170,0.0,0.0,78,0.00,,,0.00,Wunderground v.1.15,2013-09-28 02:55:00,
2013-09-27 23:00:00,62.9,55.9,30.08,South,170,0.0,0.0,78,0.00,,,0.00,Wunderground v.1.15,2013-09-28 03:00:00,
2013-09-27 23:10:00,62.9,55.9,30.08,South,187,0.0,1.0,78,0.00,,,0.00,Wunderground v.1.15,2013-09-28 03:10:00,
2013-09-27 23:20:00,62.8,55.8,30.08,South,187,0.0,0.0,78,0.00,,,0.00,Wunderground v.1.15,2013-09-28 03:20:00,
2013-09-27 23:30:00,62.7,56.1,30.08,South,187,0.0,0.0,79,0.00,,,0.00,Wunderground v.1.15,2013-09-28 03:30:00,
2013-09-27 23:40:00,62.5,55.9,30.08,South,187,0.0,0.0,79,0.00,,,0.00,Wunderground v.1.15,2013-09-28 03:40:00,
2013-09-27 23:50:00,62.3,55.7,30.09,SSW,208,0.0,0.0,79,0.00,,,0.00,Wunderground v.1.15,2013-09-28 03:50:00,